Location: Unspecified
(0.0000°N, 0.0000°E)
Time: 08:42:04
(UTC+00:00)

Vanguard 3 - Visible Passes

Search period start: 25 May 2017 00:00
Search period end: 04 June 2017 00:00
Orbit: 508 x 3265 km, 33.3° (Epoch: 24 May)

Date Brightness Start Highest point End Pass type
(mag) Time Alt. Az. Time Alt. Az. Time Alt. Az.
25 May 10.4 17:55:37 10° SSW 18:10:33 27° SSE 18:21:57 10° ESE visible
25 May 9.1 20:12:18 10° SW 20:28:08 58° SSE 20:28:08 58° SSE visible
25 May 10.8 22:30:48 10° WSW 22:32:48 15° WSW 22:32:48 15° WSW visible
26 May 9.7 18:55:22 10° SW 19:12:17 41° SSE 19:19:37 24° ESE visible
26 May 9.4 21:12:45 10° WSW 21:24:18 53° WSW 21:24:18 53° WSW visible
27 May 9.0 19:55:17 10° SW 20:12:48 68° SSE 20:15:58 54° E visible
27 May 10.3 22:14:39 10° WSW 22:20:40 25° W 22:20:40 25° W visible
28 May 9.8 18:38:18 10° SW 18:56:29 49° SSE 19:07:46 13° E visible
28 May 9.0 20:56:05 10° WSW 21:12:10 69° NW 21:12:29 69° NNW visible
29 May 9.2 19:38:20 10° SW 19:56:52 79° SE 20:04:27 28° ENE visible
29 May 10.0 21:58:35 10° W 22:09:11 33° WNW 22:09:11 33° WNW visible
30 May 9.8 18:21:19 10° SW 18:40:30 56° SSE 18:53:33 10° ENE visible
30 May 9.4 20:39:28 10° WSW 20:56:11 61° NW 21:01:17 36° NNE visible
30 May 10.8 23:04:27 10° WNW 23:06:02 12° WNW 23:06:02 12° WNW visible
31 May 9.5 19:21:29 10° SW 19:40:45 89° SE 19:52:38 10° NE visible
31 May 10.0 21:42:36 10° W 21:54:52 30° NW 21:58:14 26° NNW visible
01 Jun 9.9 18:04:28 10° SW 18:24:19 64° SE 18:38:21 10° ENE visible
01 Jun 9.8 20:22:59 10° WSW 20:40:04 54° NW 20:50:28 10° NE visible
01 Jun 10.7 22:49:39 10° WNW 22:53:49 12° NW 22:55:13 12° NNW visible
02 Jun 9.7 19:04:45 10° WSW 19:24:29 82° NW 19:37:15 10° NE visible
02 Jun 10.5 21:26:44 10° W 21:39:01 27° NW 21:47:16 10° NNE visible
03 Jun 10.0 17:47:44 10° SW 18:07:58 73° SE 18:22:59 10° ENE visible
03 Jun 10.2 20:06:36 10° WSW 20:23:54 48° NW 20:35:01 10° NNE visible
03 Jun 10.8 22:35:04 10° NW 22:38:26 11° NW 22:41:23 10° NNW visible
